Cook, MN

7:39 PM CDT on July 26, 2017 (GMT -0500)
Cook Municipal

Weather History for KCQM - December, 2011

Change the Weather History Date:

Sunday, December 25, 2011

  Actual Average Record
Temperature  
Mean Temperature 30 °F -  
Max Temperature 33 °F 16 °F 44 °F (1999)
Min Temperature 26 °F 1 °F -32 °F (1996)
Degree Days  
Heating Degree Days 36    
Moisture  
Dew Point 26 °F    
Average Humidity 83    
Maximum Humidity 100    
Minimum Humidity 70    
Precipitation  
Precipitation 0.00 in - - ()
Sea Level Pressure  
Sea Level Pressure 30.01 in    
Wind  
Wind Speed 9 mph (WNW)    
Max Wind Speed 12 mph    
Max Gust Speed 21 mph    
Visibility 8 miles    
Events Snow    
Averages and records for this station are not official NWS values.
T = Trace of Precipitation, MM = Missing Value Source: NWS Daily Summary

Daily Weather History Graph

Daily Weather History Graph

Search for Another Location

Airport or City:

Trip Planner

Search our weather history database for the weather conditions in past years. The results will help you decide how hot, cold, wet, or windy it might be!

Date:

Astronomy

Dec. 25, 2011 Rise Set
Actual Time 7:58 AM CST 4:22 PM CST
Civil Twilight 7:22 AM CST 4:59 PM CST
Nautical Twilight 6:42 AM CST 5:38 PM CST
Astronomical Twilight 6:05 AM CST 6:16 PM CST
Moon 8:33 AM CST (12/25) 5:48 PM CST (12/25)
Length of Visible Light 9h 36m
Length of Day
8h 24m
New Moon, 1% of the Moon is Illuminated
Dec 25
New Moon
Jan 1
First Quarter
Jan 9
Full
Jan 16
Last Quarter
Jan 23
New

Hourly Weather History & Observations

Time (CST) Temp. Windchill Dew Point Humidity Pressure Visibility Wind Dir Wind Speed Gust Speed Precip Events Conditions
12:17 AM 28.4 °F 19.7 °F 26.6 °F 93% 29.78 in 3.0 mi West 9.2 mph - N/A Snow Light Snow
12:37 AM 28.4 °F 19.1 °F 28.4 °F 100% 29.79 in 2.5 mi West 10.4 mph - N/A Snow Light Snow
12:56 AM 30.2 °F 21.3 °F 28.4 °F 93% 29.80 in 2.0 mi West 10.4 mph - N/A Snow Light Snow
1:17 AM 30.2 °F 21.3 °F 28.4 °F 93% 29.81 in 1.8 mi West 10.4 mph 17.3 mph N/A Snow Light Snow
1:37 AM 30.2 °F 21.3 °F 28.4 °F 93% 29.81 in 3.0 mi West 10.4 mph - N/A Snow Light Snow
1:56 AM 30.2 °F 21.3 °F 28.4 °F 93% 29.83 in 3.0 mi West 10.4 mph 16.1 mph N/A Snow Light Snow
2:16 AM 30.2 °F 22.6 °F 28.4 °F 93% 29.84 in 5.0 mi WNW 8.1 mph - N/A Snow Light Snow
2:36 AM 30.2 °F 20.8 °F 28.4 °F 93% 29.85 in 10.0 mi West 11.5 mph 17.3 mph N/A   Overcast
2:56 AM 30.2 °F 21.9 °F 28.4 °F 93% 29.86 in 7.0 mi WNW 9.2 mph - N/A Snow Light Snow
3:16 AM 30.2 °F 21.3 °F 28.4 °F 93% 29.87 in 7.0 mi WNW 10.4 mph 16.1 mph N/A   Overcast
3:36 AM 30.2 °F 20.8 °F 28.4 °F 93% 29.88 in 7.0 mi WNW 11.5 mph - N/A Snow Light Snow
3:57 AM 30.2 °F 23.4 °F 28.4 °F 93% 29.89 in 5.0 mi WNW 6.9 mph - N/A Snow Light Snow
4:16 AM 30.2 °F 21.3 °F 28.4 °F 93% 29.89 in 7.0 mi WNW 10.4 mph 16.1 mph N/A Snow Light Snow
4:36 AM 30.2 °F 22.6 °F 28.4 °F 93% 29.90 in 7.0 mi WNW 8.1 mph - N/A Snow Light Snow
4:57 AM 30.2 °F 20.8 °F 28.4 °F 93% 29.90 in 5.0 mi West 11.5 mph - N/A Snow Light Snow
5:16 AM 30.2 °F 21.9 °F 28.4 °F 93% 29.91 in 3.0 mi West 9.2 mph - N/A Snow Light Snow
5:36 AM 30.2 °F 21.3 °F 30.2 °F 100% 29.93 in 3.0 mi West 10.4 mph - N/A Snow Light Snow
5:56 AM 30.2 °F 21.3 °F 28.4 °F 93% 29.94 in 7.0 mi WNW 10.4 mph 17.3 mph N/A Snow Light Snow
6:17 AM 32.0 °F 23.0 °F 28.4 °F 87% 29.95 in 10.0 mi WNW 11.5 mph 17.3 mph N/A   Overcast
6:36 AM 32.0 °F 24.2 °F 28.4 °F 87% 29.96 in 10.0 mi WNW 9.2 mph 20.7 mph N/A   Overcast
6:56 AM 30.2 °F 25.4 °F 28.4 °F 93% 29.97 in 2.5 mi WNW 4.6 mph - N/A Snow Light Snow
7:17 AM 30.2 °F 22.6 °F 28.4 °F 93% 29.98 in 7.0 mi WNW 8.1 mph - N/A   Overcast
7:36 AM 32.0 °F 23.6 °F 28.4 °F 87% 29.99 in 10.0 mi WNW 10.4 mph - N/A   Overcast
7:56 AM 32.0 °F 23.0 °F 26.6 °F 80% 30.00 in 10.0 mi WNW 11.5 mph 17.3 mph N/A   Overcast
8:17 AM 30.2 °F 22.6 °F 26.6 °F 86% 30.01 in 10.0 mi WNW 8.1 mph 16.1 mph N/A   Overcast
8:36 AM 30.2 °F 21.9 °F 26.6 °F 86% 30.02 in 10.0 mi WNW 9.2 mph - N/A   Overcast
8:56 AM 32.0 °F 25.6 °F 26.6 °F 80% 30.03 in 10.0 mi WNW 6.9 mph 18.4 mph N/A   Overcast
9:16 AM 32.0 °F 24.2 °F 24.8 °F 75% 30.04 in 10.0 mi NW 9.2 mph 19.6 mph N/A   Overcast
9:36 AM 32.0 °F 24.2 °F 24.8 °F 75% 30.06 in 10.0 mi NW 9.2 mph - N/A   Overcast
9:56 AM 32.0 °F 23.0 °F 24.8 °F 75% 30.07 in 10.0 mi NW 11.5 mph 18.4 mph N/A   Overcast
10:17 AM 32.0 °F 24.8 °F 24.8 °F 75% 30.08 in 10.0 mi WNW 8.1 mph 18.4 mph N/A   Overcast
10:36 AM 32.0 °F 26.4 °F 26.6 °F 80% 30.09 in 10.0 mi WNW 5.8 mph - N/A   Overcast
10:56 AM 32.0 °F 23.0 °F 26.6 °F 80% 30.10 in 10.0 mi WNW 11.5 mph 19.6 mph N/A   Overcast
11:16 AM 32.0 °F 24.8 °F 24.8 °F 75% 30.10 in 10.0 mi NW 8.1 mph 19.6 mph N/A   Overcast
11:36 AM 32.0 °F 23.6 °F 24.8 °F 75% 30.11 in 10.0 mi NW 10.4 mph 16.1 mph N/A   Overcast
11:57 AM 32.0 °F 23.6 °F 24.8 °F 75% 30.10 in 10.0 mi NW 10.4 mph 16.1 mph N/A   Overcast
12:16 PM 32.0 °F 23.6 °F 24.8 °F 75% 30.10 in 10.0 mi WNW 10.4 mph - N/A   Overcast
12:36 PM 32.0 °F 24.2 °F 24.8 °F 75% 30.11 in 10.0 mi WNW 9.2 mph - N/A   Overcast
12:57 PM 32.0 °F 25.6 °F 24.8 °F 75% 30.11 in 10.0 mi WNW 6.9 mph - N/A   Overcast
1:16 PM 32.0 °F 23.0 °F 24.8 °F 75% 30.10 in 10.0 mi WNW 11.5 mph 17.3 mph N/A   Overcast
1:37 PM 32.0 °F 23.6 °F 24.8 °F 75% 30.11 in 10.0 mi West 10.4 mph 16.1 mph N/A   Overcast
1:56 PM 32.0 °F 24.2 °F 24.8 °F 75% 30.11 in 10.0 mi West 9.2 mph - N/A   Overcast
2:17 PM 32.0 °F 24.8 °F 24.8 °F 75% 30.12 in 10.0 mi West 8.1 mph - N/A   Overcast
2:36 PM 32.0 °F 24.2 °F 24.8 °F 75% 30.12 in 10.0 mi WNW 9.2 mph - N/A   Overcast
2:56 PM 32.0 °F 24.2 °F 24.8 °F 75% 30.13 in 10.0 mi West 9.2 mph - N/A   Overcast
3:16 PM 33.8 °F 25.8 °F 24.8 °F 70% 30.13 in 10.0 mi West 10.4 mph - N/A   Overcast
3:37 PM 33.8 °F 27.0 °F 24.8 °F 70% 30.14 in 10.0 mi West 8.1 mph - N/A   Overcast
3:56 PM 32.0 °F 24.8 °F 24.8 °F 75% 30.14 in 10.0 mi West 8.1 mph 16.1 mph N/A   Overcast
4:17 PM 32.0 °F 24.8 °F 24.8 °F 75% 30.14 in 10.0 mi West 8.1 mph - N/A   Overcast
4:36 PM 30.2 °F 24.3 °F 23.0 °F 75% 30.14 in 10.0 mi West 5.8 mph - N/A   Scattered Clouds
4:57 PM 30.2 °F 26.7 °F 23.0 °F 75% 30.13 in 10.0 mi WSW 3.5 mph - N/A   Scattered Clouds
5:16 PM 28.4 °F - 21.2 °F 74% 30.13 in 10.0 mi Calm Calm - N/A   Clear
5:37 PM 26.6 °F 22.6 °F 21.2 °F 80% 30.13 in 10.0 mi SSW 3.5 mph - N/A   Clear
5:57 PM 26.6 °F 22.6 °F 21.2 °F 80% 30.13 in 10.0 mi SW 3.5 mph - N/A   Clear
6:16 PM 26.6 °F 22.6 °F 21.2 °F 80% 30.11 in 10.0 mi SSW 3.5 mph - N/A   Clear
6:37 PM 28.4 °F 22.2 °F 23.0 °F 80% 30.11 in 10.0 mi SSW 5.8 mph - N/A   Clear
6:56 PM 28.4 °F 24.6 °F 23.0 °F 80% 30.10 in 10.0 mi South 3.5 mph - N/A   Clear
7:16 PM 28.4 °F 24.6 °F 23.0 °F 80% 30.10 in 10.0 mi South 3.5 mph - N/A   Clear
7:37 PM 28.4 °F 23.3 °F 21.2 °F 74% 30.09 in 10.0 mi South 4.6 mph - N/A   Clear
7:56 PM 26.6 °F 22.6 °F 21.2 °F 80% 30.07 in 10.0 mi South 3.5 mph - N/A   Clear
8:17 PM 26.6 °F 22.6 °F 21.2 °F 80% 30.07 in 10.0 mi South 3.5 mph - N/A   Clear
8:36 PM 28.4 °F 23.3 °F 21.2 °F 74% 30.06 in 10.0 mi SSW 4.6 mph - N/A   Clear
8:56 PM 28.4 °F 23.3 °F 21.2 °F 74% 30.05 in 10.0 mi SSW 4.6 mph - N/A   Clear
9:17 PM 28.4 °F 24.6 °F 21.2 °F 74% 30.03 in 10.0 mi South 3.5 mph - N/A   Clear
9:37 PM 28.4 °F 21.2 °F 21.2 °F 74% 30.02 in 10.0 mi South 6.9 mph - N/A   Mostly Cloudy
9:56 PM 28.4 °F 21.2 °F 21.2 °F 74% 30.02 in 10.0 mi SSW 6.9 mph - N/A   Overcast
10:17 PM 28.4 °F 22.2 °F 21.2 °F 74% 30.00 in 10.0 mi SSW 5.8 mph - N/A   Mostly Cloudy
10:36 PM 28.4 °F 22.2 °F 21.2 °F 74% 30.00 in 10.0 mi SSW 5.8 mph - N/A   Scattered Clouds
10:57 PM 28.4 °F 22.2 °F 21.2 °F 74% 29.98 in 10.0 mi South 5.8 mph - N/A   Mostly Cloudy
11:16 PM 28.4 °F 21.2 °F 21.2 °F 74% 29.96 in 10.0 mi South 6.9 mph - N/A   Mostly Cloudy
11:36 PM 30.2 °F 22.6 °F 21.2 °F 69% 29.96 in 10.0 mi SSW 8.1 mph - N/A   Mostly Cloudy
11:57 PM 30.2 °F 22.6 °F 23.0 °F 75% 29.94 in 10.0 mi South 8.1 mph - N/A   Overcast